Home   Weather   Annapolis   Past weeks

Flag for USA Past Weather in Annapolis, Maryland, USA — Yesterday and Last 2 Weeks

Now
61 °F

Clear.


Feels Like: 61 °F
Forecast: 57 / 76 °F
Wind: 3 mph from Southeast

Location: Annapolis - United States Naval Academy

Current Time: Apr 26, 2017 at 9:51:43 pm

Latest Report: Apr 26, 2017 at 8:54 pm


Visibility: 10 mi

Pressure: 29.82 "Hg

Humidity: 90%

Dew Point: 58 °F

Location of AnnapolisLocation

Past Weather in Annapolis — Graph

°F

Annapolis Temperature Yesterday

Maximum temperature yesterday: 60 °F (at 2:37 pm)
Minimum temperature yesterday: 54 °F (at 1:54 am)
Average temperature yesterday: 58 °F

High & Low Weather Summary for the Past Weeks

 TemperatureHumidityPressure
High88 °F (Apr 16, 3:54 pm)97% (Apr 21, 2:54 am)30.41 "Hg (Apr 21, 2:54 am)
Low51 °F (Apr 23, 5:54 am)28% (Apr 16, 3:54 pm)29.68 "Hg (Apr 26, 3:54 am)
Average62 °F73%30.04 "Hg
* Reported Apr 11 7:54 pm — Apr 26 7:54 pm, Annapolis, Weather by CustomWeather, © 2017

Note: Actual official high and low records may vary slightly from our data, if they occured in-between our weather recording intervals... More about our weather records

Advertising

Annapolis Weather History for the Previous 24 Hours

Scroll right to see more
 ConditionsComfort  
Time TempWeatherWind HumidityBarometerVisibility
7:54 pm
Wed, Apr 26
63 °FOvercast.3 mph87%29.81 "Hg10 mi
6:54 pm63 °FOvercast.3 mph90%29.80 "Hg10 mi
6:16 pm65 °FOvercast.3 mph78%29.79 "Hg10 mi
5:54 pm65 °FOvercast.5 mph81%29.79 "Hg10 mi
5:37 pm65 °FOvercast.5 mph81%29.78 "Hg10 mi
4:54 pm63 °FOvercast.5 mph84%29.79 "Hg10 mi
3:54 pm63 °FOvercast.3 mph87%29.79 "Hg10 mi
2:54 pm65 °FOvercast.5 mph78%29.77 "Hg10 mi
1:54 pm65 °FOvercast.6 mph76%29.77 "Hg10 mi
12:54 pm63 °FOvercast.5 mph84%29.78 "Hg10 mi
11:54 am63 °FMostly cloudy.5 mph81%29.79 "Hg10 mi
10:54 am61 °FOvercast.6 mph87%29.79 "Hg9 mi
10:36 am60 °FLow clouds.7 mph90%29.78 "Hg8 mi
10:06 am60 °FFog.6 mph90%29.77 "Hg4 mi
9:54 am59 °FFog.7 mph93%29.77 "Hg2 mi
8:54 am59 °FFog.7 mph93%29.75 "Hg5 mi
7:54 am59 °FOvercast.6 mph93%29.73 "Hg10 mi
6:54 am59 °FOvercast.8 mphN/A29.70 "Hg8 mi
5:54 am59 °FOvercast.9 mphN/A29.69 "Hg8 mi
4:54 am59 °FOvercast.9 mphN/A29.68 "Hg10 mi
4:27 am59 °FOvercast.7 mphN/A29.68 "Hg10 mi
3:54 am57 °FLow clouds.9 mphN/A29.68 "Hg6 mi
2:54 am59 °FFog.9 mphN/A29.68 "Hg3 mi
2:29 am59 °FFog.10 mphN/A29.68 "Hg2 mi
1:54 am59 °FLow clouds.9 mphN/A29.70 "Hg10 mi
12:54 am59 °FLight rain. Low clouds.8 mphN/A29.70 "Hg9 mi
11:54 pm
Tue, Apr 25
59 °FLight rain. Fog.9 mph90%29.72 "Hg6 mi
10:54 pm59 °FLight rain. Low clouds.8 mph84%29.73 "Hg9 mi
10:41 pm59 °FLight rain. Low clouds.7 mph84%29.73 "Hg10 mi
10:29 pm58 °FLight rain. Mostly cloudy.8 mph97%29.73 "Hg9 mi
10:09 pm58 °FLight rain. Fog.8 mph97%29.73 "Hg6 mi
9:54 pm58 °FLight rain. Fog.6 mph97%29.74 "Hg3 mi
9:30 pm58 °FRain. Fog.8 mph97%29.73 "Hg2 mi
Weather by CustomWeather, © 2017

See weather overviewHow to use our weather pages